Flag for Canada Weather past 2 weeks in Selkirk, Manitoba, Canada

Now
46 °F

Cool.


Feels Like: 44 °F
Forecast: 43 / 58 °F
Wind: 5 mph from Northeast

Location: Winnipeg The Forks

Current Time: Sep 17, 2014 at 1:42:27 PM

Latest Report: Sep 17, 2014 at 12:00 PM


Visibility: N/A

Pressure: 30.11 "Hg

Humidity: 81%

Dew point: 41 °F

Location of SelkirkLocation

Historic Weather in Selkirk — Graph

°F

Selkirk temperature yesterday

Maximum temperature yesterday: 65 °F (at 4:00 PM)
Minimum temperature yesterday: 55 °F (at 9:00 AM)
Average temperature yesterday: 59 °F

Past Weeks' High & Low Weather Summary

 TemperatureHumidityPressure
High76 °F (Sep 7, 5:00 PM)100% (Sep 3, 4:00 AM)30.44 "Hg (Sep 3, 4:00 AM)
Low40 °F (Sep 13, 5:00 AM)24% (Sep 15, 4:00 PM)29.53 "Hg (Sep 8, 10:00 AM)
Average55 °F68%30.01 "Hg
* Reported Sep 2 12:00 Noon — Sep 17 12:00 Noon, Selkirk, Weather by CustomWeather, © 2014

Note: Actual official high and low records may vary slightly from our data, if they occured in-between our weather recording intervals... More about our weather records

Advertising

Selkirk weather history for previous 24 hours

 ConditionsComfort  
Time TempWeatherWind HumidityBarometerVisibility
12:00 PM
Sep 17
46 °FCool.5 mph81%30.11 "HgN/A
11:00 AM44 °FQuite cool.6 mph83%30.10 "HgN/A
10:00 AM43 °FQuite cool.6 mph86%30.09 "HgN/A
9:00 AM42 °FQuite cool.6 mph87%30.07 "HgN/A
8:00 AM42 °FQuite cool.5 mph90%30.05 "HgN/A
7:00 AM43 °FQuite cool.6 mph90%30.02 "HgN/A
6:00 AM45 °FQuite cool.5 mph89%29.99 "HgN/A
5:00 AM46 °FCool.6 mph89%29.98 "HgN/A
4:00 AM47 °FCool.3 mph83%29.95 "HgN/A
3:00 AM50 °FCool.3 mph80%29.92 "HgN/A
2:00 AM51 °FCool.5 mph77%29.91 "HgN/A
1:00 AM51 °FCool.8 mph80%29.91 "HgN/A
12:00 AM52 °FCool.7 mph81%29.88 "HgN/A
11:00 PM
Sep 16
57 °FCool.5 mph74%29.85 "HgN/A
10:00 PM55 °FCool.1 mph82%29.87 "HgN/A
9:00 PM57 °FCool.No wind77%29.88 "HgN/A
8:00 PM58 °FCool.2 mph73%29.89 "HgN/A
7:00 PM60 °FCool.2 mph68%29.90 "HgN/A
6:00 PM62 °FCool.2 mph61%29.91 "HgN/A
5:00 PM64 °FMild.3 mph52%29.93 "HgN/A
4:00 PM65 °FMild.3 mph48%29.94 "HgN/A
3:00 PM64 °FMild.3 mph49%29.96 "HgN/A
2:00 PM64 °FMild.5 mph51%29.97 "HgN/A
1:00 PM65 °FMild.3 mph59%29.98 "HgN/A
Weather by CustomWeather, © 2014

See weather overviewHow to use our weather pages